Starlink 32631

operational
NORAD ID: 62235 Int'l Des: 2024-231 Owner: SPXS Country: US Constellation: starlink
LEOCIRCULAR

Starlink 32631について

説明を読み込み中...

リアルタイム位置

3D地球を読み込み中...

次回通過

高度履歴

Altitude vs Time

uPlot chart will show altitude changes over time

軌道要素

1 62235U 24231T 25305.66668981 .00012845 00000-0 44532-3 0 9996
2 62235 53.1583 81.3409 0001121 83.1102 139.8523 15.30181061 5956
Epoch: Nov 1, 2025 • Age: 17 hours

現在のステータス

高度 475.2 km
速度 7.63 km/s
衛星直下点 11.84°N, 72.3°E
打ち上げ日 Dec 5, 2024
運用期間 0.9 years
タイプ internet

技術仕様

分類 Payload
質量 730.00 kg
乾燥質量 700.00 kg
総質量 730.00 kg
長さ 0.30 m
直径 4.10 m
スパン 29.00 m
形状 Box + pan
製造者 SPXS
バスタイプ Starlink V2M
フェーズステータス In Orbit
所有者/国 SPXS/US

大規模コンステレーション

Loading constellations...